This demonstration page uses our WeatherBlox Daily Observations layout. Learn more.

Left ArrowRight Arrow

39.01783, -85.05884

Hourly Observations for October 2, 2018

Temp ( °F °C ) Dew Point ( °F °C ) Humidity (%) Winds ( mph kmh ) Pressure ( in mb ) Visibility ( mi km ) Precip ( " mm )
12:52 am 00:52 Mostly Cloudy 70 21.1 69 20.6 97 97 SSW 6 9 30.12 1020 10 16 N/A
1:52 am 01:52 Mostly Cloudy 70 21.1 69 20.6 97 97 S 7 11 30.12 1020 10 16 N/A
2:52 am 02:52 Mostly Cloudy 70 21.1 69 20.6 97 97 SSW 8 13 30.12 1020 10 16 N/A
3:52 am 03:52 Cloudy 70 21.1 69 20.6 97 97 SSW 8 13 30.11 1020 10 16 N/A
4:52 am 04:52 Cloudy 70 21.1 69 20.6 97 97 SSW 7 11 30.11 1020 10 16 N/A
5:52 am 05:52 Cloudy 70 21.1 69 20.6 97 97 SSW 7 11 30.11 1020 10 16 N/A
6:52 am 06:52 Cloudy 70 21.1 69 20.6 97 97 SSW 6 9 30.12 1020 8 13 N/A
7:52 am 07:52 Mostly Cloudy with Mist and Fog 69 20.6 69 20.6 100 100 SSW 7 11 30.13 1020 6 10 N/A
8:52 am 08:52 Mostly Cloudy 70 21.1 69 20.6 97 97 SSW 8 13 30.12 1020 7 11 N/A
9:18 am 09:18 Cloudy 71 21.7 70 21.1 96 96 SSW 9 15 30.12 1020 7 11 N/A
9:52 am 09:52 Cloudy 72 22.2 70 21.1 94 94 SSW 9 15 30.12 1020 7 11 N/A
10:22 am 10:22 Cloudy 73 22.8 70 21.1 90 90 SW 9 15 30.12 1020 9 14 N/A
10:52 am 10:52 Cloudy 73 22.8 70 21.1 90 90 WSW 8 13 30.14 1021 9 14 N/A
11:06 am 11:06 Cloudy 74 23.3 70 21.1 88 88 SW 9 15 30.12 1020 9 14 N/A
11:52 am 11:52 Cloudy 74 23.3 70 21.1 88 88 WSW 6 9 30.13 1020 10 16 N/A
12:17 pm 12:17 Cloudy 76 24.4 70 21.1 82 82 SSW 10 17 30.12 1020 10 16 N/A
12:52 pm 12:52 Cloudy 77 25 71 21.7 82 82 SW 9 15 30.11 1020 10 16 N/A
1:52 pm 13:52 Mostly Cloudy 80 26.7 69 20.6 69 69 WSW 8 13 30.09 1019 10 16 N/A
2:52 pm 14:52 Mostly Cloudy 81 27.2 68 20 65 65 WSW 12 19 30.07 1018 10 16 N/A
3:52 pm 15:52 Partly Cloudy 83 28.3 68 20 61 61 WSW 9 15 30.06 1018 10 16 N/A
4:52 pm 16:52 Partly Cloudy 83 28.3 67 19.4 59 59 SW 9 15 30.05 1018 10 16 N/A
5:52 pm 17:52 Mostly Sunny 82 27.8 67 19.4 60 60 SW 10 17 30.05 1018 10 16 N/A
6:52 pm 18:52 Mostly Sunny 78 25.6 68 20 71 71 SW 5 7 30.06 1018 10 16 N/A
7:52 pm 19:52 Mostly Clear 74 23.3 68 20 82 82 SSW 5 7 30.06 1018 10 16 N/A
8:52 pm 20:52 Partly Cloudy 73 22.8 68 20 84 84 SSW 7 11 30.08 1019 10 16 N/A
9:52 pm 21:52 Mostly Cloudy 73 22.8 68 20 84 84 SSW 6 9 30.09 1019 10 16 N/A
10:52 pm 22:52 Partly Cloudy 72 22.2 68 20 87 87 SSW 7 11 30.09 1019 10 16 N/A
11:52 pm 23:52 Mostly Clear 72 22.2 69 20.6 91 91 SSW 8 13 30.09 1019 10 16 N/A

Powered by AerisWeather